Location: Gro�wechsungen
(51.4926°N, 10.6901°E)
Time: 14:05:38
(UTC+00:00)

Cosmos 2082 Rocket - Pass Details

Date: 25 January 2021
Orbit: 832 x 854 km, 71.0° (Epoch: 04 March)

Event Time Altitude Azimuth Distance (km) Brightness Sun altitude
Rises 20:03:51 0° 321° (NW) 3,436 6.1 -38.2°
Reaches altitude 10° 20:06:49 10° 307° (NW) 2,494 5.3 -38.7°
Maximum altitude 20:11:05 22° 259° (W) 1,779 4.2 -39.3°
Enters shadow 20:11:09 22° 258° (WSW) 1,780 4.2 -39.3°
